Location: Unspecified
(64.9000°N, 0.0000°E)
Time: 21:49:31
(UTC+00:00)

Altair - Pass Details

Date: 20 June 2019
Orbit: 1501 x 1683 km, 47.2° (Epoch: 19 July)

Event Time Altitude Azimuth Distance (km) Brightness Sun altitude
Rises 23:49:38 0° 250° (WSW) 4,805 9.9 -1.6°
Reaches altitude 10° 23:53:17 10° 239° (WSW) 3,847 9.3 -1.7°
Maximum altitude 00:01:01 27° 187° (S) 2,762 8.3 -1.7°
Drops below altitude 10° 00:08:56 10° 134° (SE) 3,933 9.3 -1.7°
Sets 00:12:42 0° 124° (SE) 4,931 9.8 -1.6°
